| time (UTC) | temp F | wind direction | speed MPH | gust MPH | rain 1hr in | rain 24hr in | rain mn in | humidity % | barometer mb |
| 20260903100700 | 66 | 216 | 5.0 | 10.0 | 0.00 | 0.05 | 0.05 | 85 | 1015.3 |
| 20260903095700 | 66 | 213 | 4.0 | 11.0 | 0.00 | 0.05 | 0.05 | 86 | 1015.6 |
| 20260903093700 | 66 | 247 | 5.0 | 12.0 | 0.00 | 0.05 | 0.05 | 86 | 1015.6 |
| 20260903091700 | 66 | 252 | 5.0 | 11.0 | 0.00 | 0.05 | 0.05 | 86 | 1015.1 |
| 20260903090700 | 65 | 248 | 5.0 | 10.0 | 0.01 | 0.05 | 0.05 | 86 | 1015.0 |
| 20260903085700 | 65 | 257 | 3.0 | 9.0 | 0.01 | 0.05 | 0.05 | 87 | 1015.2 |
| 20260903083700 | 64 | 230 | 4.0 | 11.0 | 0.05 | 0.05 | 0.05 | 87 | 1015.4 |
| 20260903082700 | 64 | 256 | 4.0 | 8.0 | 0.05 | 0.05 | 0.05 | 87 | 1015.4 |
| 20260903081700 | 64 | 252 | 3.0 | 8.0 | 0.05 | 0.05 | 0.05 | 85 | 1015.3 |
| 20260903080700 | 64 | 251 | 3.0 | 8.0 | 0.04 | 0.04 | 0.04 | 84 | 1015.3 |
| 20260903075700 | 65 | 237 | 4.0 | 12.0 | 0.04 | 0.04 | 0.04 | 81 | 1015.3 |
| 20260903074700 | 66 | 235 | 5.0 | 14.0 | 0.03 | 0.03 | 0.03 | 79 | 1015.4 |
| 20260903073700 | 66 | 235 | 5.0 | 12.0 | 0.00 | 0.00 | 0.00 | 77 | 1015.3 |
| 20260903072700 | 66 | 249 | 4.0 | 10.0 | 0.00 | 0.00 | 0.00 | 76 | 1015.2 |
| 20260903071701 | 66 | 232 | 4.0 | 11.0 | 0.00 | 0.00 | 0.00 | 76 | 1015.3 |
| 20260903070700 | 66 | 232 | 5.0 | 10.0 | 0.00 | 0.00 | 0.00 | 75 | 1015.3 |
| 20260903065701 | 66 | 269 | 4.0 | 7.0 | 0.00 | 0.00 | 0.00 | 75 | 1015.2 |
| 20260903064700 | 66 | 189 | 4.0 | 12.0 | 0.00 | 0.00 | 0.00 | 74 | 1015.2 |
| 20260903063700 | 66 | 180 | 4.0 | 11.0 | 0.00 | 0.00 | 0.00 | 74 | 1015.0 |
| 20260903062700 | 66 | 217 | 4.0 | 9.0 | 0.00 | 0.00 | 0.00 | 73 | 1015.0 |
| 20260903061701 | 66 | 276 | 4.0 | 11.0 | 0.00 | 0.00 | 0.00 | 71 | 1015.0 |
| 20260903060700 | 66 | 226 | 3.0 | 9.0 | 0.00 | 0.00 | 0.00 | 70 | 1015.1 |
| 20260903055701 | 65 | 193 | 3.0 | 9.0 | 0.00 | 0.00 | 0.00 | 70 | 1015.1 |
| 20260903053701 | 65 | 229 | 4.0 | 9.0 | 0.00 | 0.00 | 0.00 | 70 | 1015.2 |
| 20260903052701 | 65 | 246 | 4.0 | 8.0 | 0.00 | 0.00 | 0.00 | 70 | 1015.2 |
| 20260903051701 | 65 | 241 | 4.0 | 9.0 | 0.00 | 0.00 | 0.00 | 70 | 1014.9 |
| 20260903050701 | 65 | 230 | 4.0 | 9.0 | 0.00 | 0.00 | 0.00 | 70 | 1014.9 |
| 20260903045701 | 65 | 219 | 3.0 | 7.0 | 0.00 | 0.00 | 0.00 | 70 | 1015.0 |
| 20260903044701 | 65 | 204 | 3.0 | 10.0 | 0.00 | 0.00 | 0.00 | 70 | 1015.3 |
| 20260903040701 | 64 | 189 | 3.0 | 9.0 | 0.00 | 0.00 | 0.00 | 72 | 1015.3 |
| 20260903035701 | 64 | 250 | 4.0 | 17.0 | 0.00 | 0.00 | 0.00 | 72 | 1015.3 |
| 20260903034701 | 64 | 184 | 3.0 | 7.0 | 0.00 | 0.00 | 0.00 | 72 | 1015.3 |
| 20260903033701 | 64 | 222 | 3.0 | 9.0 | 0.00 | 0.00 | 0.00 | 73 | 1015.4 |
| 20260903032701 | 64 | 230 | 2.0 | 7.0 | 0.00 | 0.00 | 0.00 | 73 | 1015.5 |
| 20260903031702 | 64 | 199 | 3.0 | 8.0 | 0.00 | 0.00 | 0.00 | 73 | 1015.6 |
| 20260903030701 | 64 | 201 | 2.0 | 5.0 | 0.00 | 0.00 | 0.00 | 73 | 1016.0 |
| 20260903025701 | 64 | 199 | 2.0 | 7.0 | 0.00 | 0.00 | 0.00 | 73 | 1015.8 |
| 20260903024701 | 64 | 191 | 3.0 | 9.0 | 0.00 | 0.00 | 0.00 | 73 | 1015.9 |
| 20260903022702 | 64 | 201 | 3.0 | 7.0 | 0.00 | 0.00 | 0.00 | 74 | 1015.9 |
| 20260903021701 | 64 | 199 | 1.0 | 4.0 | 0.00 | 0.00 | 0.00 | 74 | 1016.0 |
| 20260903020702 | 64 | 197 | 3.0 | 5.0 | 0.00 | 0.00 | 0.00 | 73 | 1016.0 |
| 20260903015702 | 64 | 203 | 1.0 | 4.0 | 0.00 | 0.00 | 0.00 | 73 | 1016.1 |
| 20260903014702 | 64 | 203 | 3.0 | 6.0 | 0.00 | 0.00 | 0.00 | 73 | 1016.2 |
| 20260903013702 | 64 | 209 | 2.0 | 5.0 | 0.00 | 0.00 | 0.00 | 73 | 1016.5 |
| 20260903012703 | 64 | 190 | 4.0 | 12.0 | 0.00 | 0.00 | 0.00 | 74 | 1016.5 |
| 20260903011702 | 64 | 201 | 2.0 | 5.0 | 0.00 | 0.00 | 0.00 | 75 | 1016.9 |
| 20260903010702 | 64 | 195 | 2.0 | 3.0 | 0.00 | 0.00 | 0.00 | 74 | 1016.9 |
| 20260903005702 | 64 | 197 | 2.0 | 5.0 | 0.00 | 0.00 | 0.00 | 74 | 1016.8 |
| 20260903004702 | 64 | 197 | 2.0 | 5.0 | 0.00 | 0.00 | 0.00 | 75 | 1016.8 |
| 20260903003702 | 64 | 176 | 2.0 | 5.0 | 0.00 | 0.00 | 0.00 | 75 | 1017.0 |
| 20260903002702 | 64 | 204 | 1.0 | 3.0 | 0.00 | 0.00 | 0.00 | 75 | 1017.1 |
| 20260903001702 | 64 | 204 | 1.0 | 4.0 | 0.00 | 0.00 | 0.00 | 75 | 1017.1 |
| 20260903000702 | 64 | 204 | 1.0 | 4.0 | 0.00 | 0.00 | 0.00 | 75 | 1017.1 |
| 20260902235702 | 64 | 205 | 1.0 | 3.0 | 0.00 | 0.00 | 0.00 | 75 | 1017.3 |
| 20260902234702 | 64 | 205 | 2.0 | 4.0 | 0.00 | 0.00 | 0.00 | 75 | 1017.3 |
| 20260902233702 | 64 | 205 | 1.0 | 3.0 | 0.00 | 0.00 | 0.00 | 74 | 1017.4 |
| 20260902232702 | 64 | 205 | 2.0 | 4.0 | 0.00 | 0.00 | 0.00 | 74 | 1017.4 |
| 20260902231702 | 64 | 205 | 2.0 | 4.0 | 0.00 | 0.00 | 0.00 | 74 | 1017.5 |
| 20260902230702 | 64 | 200 | 1.0 | 4.0 | 0.00 | 0.00 | 0.00 | 74 | 1017.6 |
| 20260902225703 | 64 | 195 | 1.0 | 3.0 | 0.00 | 0.00 | 0.00 | 75 | 1017.6 |
| 20260902224703 | 64 | 195 | 2.0 | 5.0 | 0.00 | 0.00 | 0.00 | 75 | 1017.6 |
| 20260902223703 | 64 | 219 | 0.0 | 1.0 | 0.00 | 0.00 | 0.00 | 75 | 1018.0 |
| 20260902221703 | 64 | 220 | 1.0 | 3.0 | 0.00 | 0.00 | 0.00 | 75 | 1018.1 |
| 20260902220703 | 64 | 221 | 1.0 | 4.0 | 0.00 | 0.00 | 0.00 | 75 | 1017.9 |
| 20260902215703 | 64 | 222 | 2.0 | 5.0 | 0.00 | 0.00 | 0.00 | 75 | 1017.9 |
| 20260902214703 | 64 | 249 | 1.0 | 3.0 | 0.00 | 0.00 | 0.00 | 75 | 1017.9 |
| 20260902213703 | 64 | 251 | 1.0 | 3.0 | 0.00 | 0.00 | 0.00 | 75 | 1017.8 |
| 20260902212703 | 64 | 251 | 0.0 | 3.0 | 0.00 | 0.00 | 0.00 | 75 | 1018.1 |
| 20260902211703 | 64 | 251 | 1.0 | 2.0 | 0.00 | 0.00 | 0.00 | 75 | 1018.1 |
| 20260902210703 | 64 | 251 | 1.0 | 2.0 | 0.00 | 0.00 | 0.00 | 75 | 1018.2 |
| 20260902204703 | 65 | 251 | 1.0 | 3.0 | 0.00 | 0.00 | 0.00 | 73 | 1018.2 |
| 20260902201703 | 65 | 251 | 1.0 | 3.0 | 0.00 | 0.00 | 0.00 | 73 | 1018.3 |
| 20260902200703 | 65 | 251 | 0.0 | 0.0 | 0.00 | 0.00 | 0.00 | 73 | 1018.3 |
| 20260902195703 | 65 | 251 | 0.0 | 0.0 | 0.00 | 0.00 | 0.00 | 73 | 1018.3 |
| 20260902194703 | 66 | 251 | 0.0 | 0.0 | 0.00 | 0.00 | 0.00 | 73 | 1018.4 |
| 20260902193704 | 66 | 251 | 0.0 | 0.0 | 0.00 | 0.00 | 0.00 | 73 | 1018.4 |
| 20260902192703 | 66 | 251 | 0.0 | 0.0 | 0.00 | 0.00 | 0.00 | 72 | 1018.4 |
| 20260902185704 | 67 | 251 | 1.0 | 2.0 | 0.00 | 0.00 | 0.00 | 71 | 1018.3 |
| 20260902184704 | 67 | 251 | 1.0 | 2.0 | 0.00 | 0.00 | 0.00 | 70 | 1018.3 |
| 20260902183704 | 67 | 251 | 0.0 | 2.0 | 0.00 | 0.00 | 0.00 | 70 | 1018.3 |
| 20260902182704 | 68 | 251 | 1.0 | 2.0 | 0.00 | 0.00 | 0.00 | 70 | 1018.2 |
| 20260902180704 | 68 | 251 | 2.0 | 3.0 | 0.00 | 0.00 | 0.00 | 69 | 1018.2 |
| 20260902174704 | 69 | 244 | 3.0 | 7.0 | 0.00 | 0.00 | 0.00 | 68 | 1018.2 |
| 20260902173705 | 69 | 277 | 3.0 | 8.0 | 0.00 | 0.00 | 0.00 | 68 | 1018.2 |
| 20260902171704 | 69 | 286 | 2.0 | 5.0 | 0.00 | 0.00 | 0.00 | 66 | 1018.1 |
| 20260902170705 | 70 | 263 | 4.0 | 9.0 | 0.00 | 0.00 | 0.00 | 64 | 1018.2 |
| 20260902165704 | 70 | 257 | 6.0 | 12.0 | 0.00 | 0.00 | 0.00 | 63 | 1018.1 |
| 20260902164704 | 71 | 269 | 5.0 | 8.0 | 0.00 | 0.00 | 0.00 | 61 | 1018.1 |
| 20260902163704 | 71 | 255 | 5.0 | 9.0 | 0.00 | 0.00 | 0.00 | 61 | 1018.0 |
| 20260902162705 | 71 | 247 | 4.0 | 8.0 | 0.00 | 0.00 | 0.00 | 60 | 1018.1 |
| 20260902161704 | 71 | 303 | 4.0 | 9.0 | 0.00 | 0.00 | 0.00 | 60 | 1018.1 |
| 20260902160704 | 72 | 244 | 4.0 | 8.0 | 0.00 | 0.00 | 0.00 | 60 | 1018.2 |
| 20260902155704 | 72 | 256 | 4.0 | 10.0 | 0.00 | 0.00 | 0.00 | 61 | 1018.2 |
| 20260902153706 | 71 | 242 | 5.0 | 10.0 | 0.00 | 0.00 | 0.00 | 59 | 1018.2 |
| 20260902152704 | 72 | 257 | 3.0 | 6.0 | 0.00 | 0.00 | 0.00 | 60 | 1018.2 |
| 20260902151705 | 72 | 251 | 3.0 | 6.0 | 0.00 | 0.00 | 0.00 | 59 | 1018.2 |
| 20260902150704 | 72 | 220 | 3.0 | 7.0 | 0.00 | 0.00 | 0.00 | 61 | 1018.2 |
| 20260902145705 | 72 | 263 | 3.0 | 7.0 | 0.00 | 0.00 | 0.00 | 60 | 1018.3 |
| 20260902144705 | 73 | 255 | 5.0 | 8.0 | 0.00 | 0.00 | 0.00 | 60 | 1018.2 |
| 20260902142705 | 73 | 251 | 4.0 | 9.0 | 0.00 | 0.00 | 0.00 | 58 | 1018.3 |
| 20260902140705 | 75 | 261 | 6.0 | 11.0 | 0.00 | 0.00 | 0.00 | 56 | 1018.2 |
| 20260902135705 | 74 | 257 | 4.0 | 9.0 | 0.00 | 0.00 | 0.00 | 57 | 1018.2 |
| 20260902133705 | 75 | 256 | 5.0 | 12.0 | 0.00 | 0.00 | 0.00 | 57 | 1018.3 |
| 20260902132705 | 76 | 263 | 6.0 | 12.0 | 0.00 | 0.00 | 0.00 | 55 | 1018.3 |
| 20260902131705 | 75 | 305 | 4.0 | 13.0 | 0.00 | 0.00 | 0.00 | 55 | 1018.2 |
| 20260902130705 | 74 | 240 | 5.0 | 10.0 | 0.00 | 0.00 | 0.00 | 58 | 1018.2 |
| 20260902125705 | 74 | 294 | 5.0 | 12.0 | 0.00 | 0.00 | 0.00 | 56 | 1018.3 |
| 20260902124705 | 72 | 251 | 5.0 | 10.0 | 0.00 | 0.00 | 0.00 | 59 | 1018.3 |
| 20260902122705 | 72 | 257 | 6.0 | 12.0 | 0.00 | 0.00 | 0.00 | 60 | 1018.5 |
| 20260902114705 | 71 | 260 | 6.0 | 12.0 | 0.00 | 0.00 | 0.00 | 62 | 1018.7 |
| 20260902113705 | 72 | 235 | 4.0 | 8.0 | 0.00 | 0.00 | 0.00 | 62 | 1018.6 |
| 20260902112706 | 71 | 284 | 6.0 | 12.0 | 0.00 | 0.00 | 0.00 | 61 | 1018.9 |
| 20260902110706 | 71 | 251 | 5.0 | 10.0 | 0.00 | 0.00 | 0.00 | 64 | 1018.9 |
| 20260902104706 | 71 | 318 | 3.0 | 8.0 | 0.00 | 0.00 | 0.00 | 66 | 1018.9 |
| 20260902103706 | 71 | 310 | 4.0 | 9.0 | 0.00 | 0.00 | 0.00 | 65 | 1018.9 |
| 20260902101706 | 70 | 267 | 3.0 | 13.0 | 0.00 | 0.00 | 0.00 | 66 | 1018.8 |